Luc Aube

Luc Aube

Statistiques 2026

  • Courses courues : 5
  • Nb de victoires : -
  • Nb de places : -
  • Écart gagnant : 14
  • Réussite à la gagne : -
  • Réussite à la place : -
Musique : Da 4a 6a 0a 9a (25) 0a Aa Aa 9a 0a 4a Da Da 7a 5a 1a 0a 3a
DateRangCatégorieAlloc.Dist.HippodromeChevalRed. KmSpé.
08/09/13 0 Trot 17 000€ 2 675m Bordeaux Le Bouscat Tamarine Attelé
08/09/13 9 Trot 14 000€ 2 550m Bordeaux Le Bouscat Arista de Mye Attelé
01/09/13 1 Trot 25 000€ 2 625m Villeneuve Sur Lot Tania du Derby 1'18"6 Attelé
01/09/13 D Trot 16 000€ 2 650m Villeneuve Sur Lot Together Attelé
01/09/13 1 Trot 13 000€ 2 650m Villeneuve Sur Lot Utopie du Pont 1'18"2 Attelé
01/09/13 D Trot 13 000€ 2 625m Villeneuve Sur Lot Venise de Flandre Attelé
31/08/13 4 Trot 15 000€ 2 400m Eauze Vidal de Gratens 1'19"6 Attelé
31/08/13 D Trot 13 000€ 2 375m Eauze Airelle du Vivier Attelé
31/08/13 2 Trot 13 000€ 2 375m Eauze Amiral Dete 1'55"8 Attelé
28/08/13 9 Mixte 13 000€ 2 475m Royan La Palmyre Vague Mika 1'20"2 Attelé
26/08/13 3 Trot 14 000€ 2 700m Agon Coutainville Antilope du Lys Attelé
25/08/13 D Trot 18 000€ 2 875m Carentan Tamarine Attelé
25/08/13 6 Trot 11 000€ 2 850m Carentan Airelle du Vivier Attelé
22/08/13 6 Trot 14 000€ 2 125m Montignac Vidal de Gratens 1'18"6 Attelé
22/08/13 8 Trot 13 000€ 2 125m Montignac Actrice de Cerisy 1'19"1 Attelé
19/08/13 T Trot 12 000€ 2 150m Castera Verduzan American Beach Attelé
18/08/13 5 Trot 16 000€ 2 600m Fleurance Teinopalpus Attelé
18/08/13 5 Trot 11 000€ 2 625m Fleurance Ubu Boko Attelé
18/08/13 D Trot 10 000€ 2 175m Fleurance Venise de Flandre Attelé
15/08/13 D Mixte 20 000€ 2 625m Gemozac Together Attelé
15/08/13 D Mixte 15 000€ 2 225m Gemozac Tierce Majeure Monté
12/08/13 0 Mixte 11 000€ 2 625m Cazaubon Vidal de Gratens Attelé
11/08/13 5 Trot 20 000€ 2 600m Fleurance Upsalin The Sun Attelé
11/08/13 5 Trot 11 000€ 2 625m Fleurance Utopie du Pont Attelé
11/08/13 D Trot 11 000€ 2 150m Fleurance Ahina de Merveille Attelé
10/08/13 D Trot 16 000€ 2 650m La Rochelle Tamarine Attelé
10/08/13 5 Trot 13 000€ 2 000m La Rochelle American Beach 1'18"8 Attelé
09/08/13 3 Trot 12 000€ 2 450m Villereal Ryes 1'17"6 Attelé
09/08/13 3 Trot 12 000€ 2 450m Villereal Ursa Gentille 1'18"9 Attelé
08/08/13 1 Trot 13 000€ 2 625m Montignac Vidal de Gratens 1'22"3 Attelé
08/08/13 D Trot 16 000€ 2 600m Montignac Toscane du Bocage Monté
07/08/13 1 Trot 16 000€ 2 725m Bagneres De Luchon Together TNC Attelé
07/08/13 D Trot 11 000€ 2 700m Bagneres De Luchon Un Joyeux de Meat Attelé
07/08/13 4 Trot 11 000€ 2 725m Bagneres De Luchon Venise de Flandre 1'27"6 Attelé
05/08/13 9 Trot 20 000€ 2 800m Auch Utopie du Pont 1'19"9 Attelé
04/08/13 D Trot 20 000€ 3 125m Monpazier Upsalin The Sun Attelé
04/08/13 D Trot 11 000€ 2 300m Monpazier Un Bon Fils Attelé
04/08/13 D Trot 9 000€ 2 300m Monpazier Asterix du Truffie Attelé
03/08/13 4 Trot 26 000€ 2 450m Villereal Together 1'16"9 Attelé
02/08/13 1 Trot 14 000€ 2 450m Villereal Teinopalpus 1'17"2 Attelé
30/07/13 0 Trot 14 000€ 2 950m Biarritz Un Joyeux de Meat Attelé
30/07/13 3 Trot 12 000€ 2 150m Biarritz Apero Cheneviere 1'23"1 Attelé
29/07/13 Dist Trot 15 000€ 2 550m Gabarret Thaison Attelé
29/07/13 2 Trot 12 000€ 2 550m Gabarret Venise de Flandre Attelé
29/07/13 1 Trot 12 000€ 2 575m Gabarret Vidal de Gratens TNC Attelé
28/07/13 2 Mixte 13 000€ 2 150m Castera Verduzan Ubu Boko 1'16"7 Attelé
28/07/13 1 Mixte 18 000€ 2 800m Castera Verduzan Urus 1'16"2 Attelé
26/07/13 0 Trot 14 000€ 2 150m Biarritz Ubu Madrik Attelé
25/07/13 5 Trot 18 000€ 2 000m La Rochelle American Beach 1'17"2 Attelé lire

Longtemps attentiste au sein du peloton, a conclu fort honorablement.

24/07/13 6 Trot 20 000€ 2 975m Biarritz Together 1'19"2 Attelé